Location: Ferma
(41.9500°N, 44.5167°E)
Time: 18:07:03
(UTC+00:00)

Cosmos 1892 - Pass Details

Date: 24 October 2021
Orbit: 501 x 522 km, 82.5° (Epoch: 01 December)

Event Time Altitude Azimuth Distance (km) Brightness Sun altitude
Rises 15:36:21 0° 356° (N) 2,613 6.3 -17.3°
Reaches altitude 10° 15:38:31 10° 1° (N) 1,721 5.3 -17.7°
Maximum altitude 15:42:13 54° 80° (E) 615 2.6 -18.4°
Enters shadow 15:42:59 44° 124° (SE) 699 2.9 -18.5°
